TIB1062 SBCX-SBRD

Flight info

Callsign TIB1062
Flight time N/A
Altitude 34000
Route NOBEL UL216 OGLAP/N0469F330 DCT GRD/N0469F340 UZ63 TOSAR/N0469F350 UM799 SINIP
Aircraft E75L/M-SDE3GILORVW/S

Departure

Time 2026-05-04 02:42
Airport Hugo Cantergiani Regional Airport (SBCX)

Arrival

Time N/A
Airport Maestro Marinho Franco Airport (SBRD)
Time Latitude Longitude Altitude Speed Heading
2026-05-04 02:20 -29.19518 -51.18749 2460 ft 0 kts 47°
2026-05-04 02:33 -29.19523 -51.18754 2460 ft 2 kts 51°
2026-05-04 02:34 -29.19530 -51.18769 2460 ft 2 kts 70°
2026-05-04 02:34 -29.19534 -51.18786 2460 ft 2 kts 85°
2026-05-04 02:34 -29.19533 -51.18803 2461 ft 2 kts 101°
2026-05-04 02:34 -29.19528 -51.18819 2461 ft 2 kts 116°
2026-05-04 02:35 -29.19520 -51.18834 2462 ft 2 kts 131°
2026-05-04 02:35 -29.19514 -51.18841 2462 ft 0 kts 140°
2026-05-04 02:38 -29.19516 -51.18839 2462 ft 1 kts 140°
2026-05-04 02:38 -29.19522 -51.18824 2461 ft 3 kts 116°
2026-05-04 02:38 -29.19544 -51.18795 2460 ft 6 kts 143°
2026-05-04 02:38 -29.19584 -51.18801 2460 ft 6 kts 221°
2026-05-04 02:39 -29.19610 -51.18830 2461 ft 4 kts 234°
2026-05-04 02:39 -29.19613 -51.18861 2462 ft 5 kts 289°
2026-05-04 02:39 -29.19583 -51.18909 2463 ft 8 kts 313°
2026-05-04 02:39 -29.19542 -51.18955 2463 ft 7 kts 314°
2026-05-04 02:40 -29.19504 -51.18998 2464 ft 7 kts 315°
2026-05-04 02:40 -29.19467 -51.19040 2465 ft 8 kts 316°
2026-05-04 02:40 -29.19422 -51.19085 2467 ft 8 kts 320°
2026-05-04 02:40 -29.19371 -51.19134 2468 ft 10 kts 317°
2026-05-04 02:41 -29.19321 -51.19197 2468 ft 11 kts 318°
2026-05-04 02:41 -29.19280 -51.19242 2468 ft 1 kts 266°
2026-05-04 02:41 -29.19292 -51.19239 2468 ft 0 kts 134°
2026-05-04 02:41 -29.19299 -51.19231 2468 ft 0 kts 134°
2026-05-04 02:42 -29.19337 -51.19186 2468 ft 34 kts 133°
2026-05-04 02:42 -29.19691 -51.18793 2460 ft 105 kts 135°
2026-05-04 02:42 -29.20315 -51.18089 2699 ft 130 kts 127°
2026-05-04 02:42 -29.20955 -51.17379 3167 ft 136 kts 131°
2026-05-04 02:43 -29.21920 -51.16800 3371 ft 169 kts 164°
2026-05-04 02:43 -29.23029 -51.16923 3992 ft 163 kts 207°
2026-05-04 02:43 -29.23945 -51.17719 4377 ft 166 kts 231°
2026-05-04 02:43 -29.24718 -51.18619 5033 ft 152 kts 233°
2026-05-04 02:44 -29.25219 -51.19746 5155 ft 165 kts 272°
2026-05-04 02:44 -29.24983 -51.20902 5799 ft 143 kts 300°
2026-05-04 02:44 -29.24717 -51.21872 6553 ft 122 kts 290°
2026-05-04 02:44 -29.24487 -51.22856 6849 ft 133 kts 290°
2026-05-04 02:45 -29.24255 -51.23885 7235 ft 136 kts 287°
2026-05-04 02:45 -29.24026 -51.24929 7650 ft 137 kts 287°
2026-05-04 02:45 -29.23795 -51.25980 8077 ft 137 kts 286°
2026-05-04 02:45 -29.23562 -51.27034 8516 ft 137 kts 285°
2026-05-04 02:46 -29.23329 -51.28084 8942 ft 138 kts 285°
2026-05-04 02:46 -29.23095 -51.29147 9387 ft 137 kts 284°
2026-05-04 02:46 -29.22856 -51.30210 9725 ft 144 kts 283°
2026-05-04 02:46 -29.22602 -51.31356 10083 ft 151 kts 283°
2026-05-04 02:47 -29.22344 -51.32515 10508 ft 152 kts 283°
2026-05-04 02:47 -29.22083 -51.33687 10925 ft 154 kts 283°
2026-05-04 02:47 -29.21799 -51.34966 11041 ft 178 kts 282°
2026-05-04 02:47 -29.21460 -51.36462 10956 ft 213 kts 287°
2026-05-04 02:48 -29.20556 -51.37958 10936 ft 248 kts 311°
2026-05-04 02:48 -29.19282 -51.39446 11100 ft 272 kts 311°
2026-05-04 02:48 -29.17946 -51.41008 11426 ft 282 kts 311°
2026-05-04 02:48 -29.16685 -51.42484 11969 ft 287 kts 310°
2026-05-04 02:49 -29.16326 -51.42905 12170 ft 286 kts 310°
2026-05-04 02:49 -29.14937 -51.44531 12979 ft 283 kts 310°
2026-05-04 02:49 -29.13600 -51.46097 13757 ft 276 kts 310°
2026-05-04 02:49 -29.12277 -51.47649 14497 ft 274 kts 310°
2026-05-04 02:50 -29.10947 -51.49207 15204 ft 273 kts 310°
2026-05-04 02:50 -29.09634 -51.50745 15890 ft 272 kts 310°
2026-05-04 02:50 -29.08337 -51.52264 16557 ft 270 kts 310°
2026-05-04 02:50 -29.07030 -51.53793 17205 ft 269 kts 310°
2026-05-04 02:51 -29.05720 -51.55325 17856 ft 266 kts 310°
2026-05-04 02:51 -29.04439 -51.56823 18447 ft 265 kts 309°
2026-05-04 02:51 -29.03173 -51.58306 19016 ft 264 kts 308°
2026-05-04 02:51 -29.02215 -51.60066 19572 ft 257 kts 291°
2026-05-04 02:52 -29.01467 -51.61889 20132 ft 256 kts 291°
2026-05-04 02:52 -29.00722 -51.63712 20660 ft 255 kts 291°
2026-05-04 02:52 -28.99967 -51.65560 21107 ft 258 kts 292°
2026-05-04 02:52 -28.99181 -51.67487 21161 ft 277 kts 291°
2026-05-04 02:53 -28.98349 -51.69539 21220 ft 294 kts 291°
2026-05-04 02:53 -28.97463 -51.71715 21325 ft 309 kts 292°
2026-05-04 02:53 -28.96535 -51.73994 21486 ft 321 kts 292°
2026-05-04 02:53 -28.95569 -51.76360 21737 ft 330 kts 292°
2026-05-04 02:54 -28.94598 -51.78739 22167 ft 332 kts 292°
2026-05-04 02:54 -28.94008 -51.80183 22461 ft 333 kts 292°
2026-05-04 02:54 -28.93036 -51.82563 22848 ft 336 kts 291°
2026-05-04 02:54 -28.92022 -51.85047 22970 ft 347 kts 292°
2026-05-04 02:55 -28.89937 -51.90141 23330 ft 363 kts 292°
2026-05-04 02:55 -28.88861 -51.92767 23729 ft 364 kts 292°
2026-05-04 02:55 -28.87799 -51.95358 24277 ft 360 kts 291°
2026-05-04 02:56 -28.86736 -51.97950 24866 ft 355 kts 291°
2026-05-04 02:56 -28.85704 -52.00465 25369 ft 353 kts 291°
2026-05-04 02:56 -28.84667 -52.02991 25778 ft 354 kts 291°
2026-05-04 02:56 -28.83614 -52.05555 25892 ft 362 kts 291°
2026-05-04 02:57 -28.82358 -52.08118 26000 ft 376 kts 306°
2026-05-04 02:57 -28.80324 -52.10096 26030 ft 391 kts 320°
2026-05-04 02:57 -28.78095 -52.11817 26231 ft 391 kts 320°
2026-05-04 02:57 -28.75814 -52.13580 26577 ft 391 kts 320°
2026-05-04 02:58 -28.73581 -52.15304 27049 ft 389 kts 320°
2026-05-04 02:58 -28.71375 -52.17007 27595 ft 383 kts 320°
2026-05-04 02:58 -28.69178 -52.18702 28120 ft 379 kts 320°
2026-05-04 02:58 -28.66977 -52.20402 28296 ft 384 kts 320°
2026-05-04 02:59 -28.65115 -52.21838 28418 ft 388 kts 320°
2026-05-04 02:59 -28.63205 -52.23310 28559 ft 392 kts 320°
2026-05-04 02:59 -28.60909 -52.25079 28679 ft 398 kts 320°
2026-05-04 03:00 -28.56227 -52.28682 28859 ft 410 kts 320°
2026-05-04 03:00 -28.53862 -52.30500 29068 ft 412 kts 320°
2026-05-04 03:00 -28.51482 -52.32328 29437 ft 410 kts 320°
2026-05-04 03:00 -28.49137 -52.34129 29793 ft 408 kts 320°
2026-05-04 03:01 -28.46782 -52.35939 30059 ft 408 kts 320°
2026-05-04 03:01 -28.44434 -52.37740 30253 ft 410 kts 319°
2026-05-04 03:01 -28.42067 -52.39555 30578 ft 407 kts 319°
2026-05-04 03:01 -28.39730 -52.41346 30912 ft 406 kts 319°
2026-05-04 03:02 -28.37382 -52.43144 31246 ft 404 kts 319°
2026-05-04 03:02 -28.32634 -52.46775 31352 ft 415 kts 319°
2026-05-04 03:02 -28.30237 -52.48608 31515 ft 416 kts 319°
2026-05-04 03:03 -28.27847 -52.50433 31703 ft 417 kts 319°
2026-05-04 03:03 -28.25421 -52.52283 31896 ft 418 kts 319°
2026-05-04 03:03 -28.23005 -52.54127 32100 ft 419 kts 319°
2026-05-04 03:03 -28.20587 -52.55971 32302 ft 419 kts 319°
2026-05-04 03:04 -28.18170 -52.57812 32504 ft 420 kts 318°
2026-05-04 03:04 -28.15734 -52.59667 32694 ft 420 kts 318°
2026-05-04 03:04 -28.13279 -52.61536 32884 ft 421 kts 318°
2026-05-04 03:04 -28.10846 -52.63387 33077 ft 421 kts 318°
2026-05-04 03:05 -28.08413 -52.65236 33261 ft 421 kts 319°
2026-05-04 03:05 -28.06011 -52.67061 33575 ft 417 kts 319°
2026-05-04 03:05 -28.03575 -52.68910 33941 ft 414 kts 318°
2026-05-04 03:05 -28.01216 -52.70699 34224 ft 402 kts 318°
2026-05-04 03:06 -27.98964 -52.72403 34404 ft 377 kts 317°
2026-05-04 03:06 -27.96799 -52.74048 33699 ft 377 kts 317°